User: anonymous   Login
Location: Caltech
(34.1382°N, 118.1253°W)
Time: 15:20:43
(UTC-07:00)
Language:

GPS 2-04 Rocket1 - Orbit

View from above orbital plane
View from above orbital plane
View from above satellite
View from above satellite

Ground track
Ground track

The orbit data is extracted from the following two-line orbital elements,

1 20303U 89085B   16205.64128413  .00002784  00000-0  10459-3 0  9994
2 20303  35.6306 288.5240 0111617 151.7697 208.9136 15.21361184450443
Epoch (UTC): 23 July 2016 15:23:26
Eccentricity: 0.0111617
inclination: 35.6306°
perigee height: 425 km
apogee height: 578 km
right ascension of ascending node: 288.5240°
argument of perigee: 151.7697°
revolutions per day: 15.21361184
mean anomaly at epoch: 208.9136°
orbit number at epoch: 45044

The dashed part of the orbit path shows where the satellite is in the earth's shadow,  

DLR